TimeCST,TemperatureF,Dew PointF,Humidity,Sea Level PressureIn,VisibilityMPH,Wind Direction,Wind SpeedMPH,Gust SpeedMPH,PrecipitationIn,Events,Conditions,WindDirDegrees,DateUTC
12:53 AM,30.9,25.0,79,30.36,10.0,SSW,3.5,-,N/A,,Clear,200,2013-03-02 06:53:00
1:53 AM,32.0,26.1,79,30.36,10.0,Calm,Calm,-,N/A,,Clear,0,2013-03-02 07:53:00
2:53 AM,28.4,24.8,86,30.35,10.0,SW,4.6,-,N/A,,Partly Cloudy,220,2013-03-02 08:53:00
3:53 AM,30.0,26.1,85,30.33,10.0,SW,6.9,-,N/A,,Overcast,220,2013-03-02 09:53:00
4:53 AM,30.9,26.1,82,30.33,10.0,WSW,6.9,-,N/A,,Mostly Cloudy,240,2013-03-02 10:53:00
5:53 AM,30.2,24.8,80,30.33,10.0,WSW,10.4,-,N/A,,Clear,240,2013-03-02 11:53:00
6:53 AM,32.0,24.1,73,30.34,10.0,WSW,10.4,-,N/A,,Clear,250,2013-03-02 12:53:00
7:53 AM,37.0,24.1,59,30.35,10.0,West,8.1,-,N/A,,Clear,270,2013-03-02 13:53:00
8:53 AM,42.1,26.1,53,30.35,10.0,West,9.2,-,N/A,,Clear,280,2013-03-02 14:53:00
9:53 AM,46.0,27.0,47,30.35,10.0,WNW,13.8,-,N/A,,Clear,300,2013-03-02 15:53:00
10:53 AM,52.0,27.0,38,30.33,10.0,West,12.7,-,N/A,,Clear,280,2013-03-02 16:53:00
11:53 AM,55.9,27.0,33,30.31,10.0,West,15.0,21.9,N/A,,Clear,270,2013-03-02 17:53:00
12:53 PM,60.1,28.0,30,30.28,10.0,West,12.7,-,N/A,,Clear,270,2013-03-02 18:53:00
1:53 PM,62.1,26.1,25,30.23,10.0,West,12.7,-,N/A,,Clear,270,2013-03-02 19:53:00
2:53 PM,63.0,25.0,24,30.20,10.0,West,11.5,-,N/A,,Clear,280,2013-03-02 20:53:00
3:53 PM,64.9,25.0,22,30.17,10.0,West,10.4,-,N/A,,Clear,260,2013-03-02 21:53:00
4:53 PM,66.0,24.1,20,30.15,10.0,NNW,6.9,-,N/A,,Clear,340,2013-03-02 22:53:00
5:53 PM,63.0,28.0,27,30.16,10.0,West,9.2,-,N/A,,Clear,260,2013-03-02 23:53:00
6:53 PM,55.4,28.4,36,30.19,10.0,WSW,8.1,-,N/A,,Clear,250,2013-03-03 00:53:00
7:53 PM,50.0,30.0,46,30.18,10.0,WSW,5.8,-,N/A,,Clear,240,2013-03-03 01:53:00
8:53 PM,46.9,30.0,52,30.17,10.0,SW,5.8,-,N/A,,Clear,220,2013-03-03 02:53:00
9:53 PM,44.1,30.0,58,30.17,10.0,SW,6.9,-,N/A,,Clear,220,2013-03-03 03:53:00
10:53 PM,43.0,28.0,56,30.14,10.0,SW,6.9,-,N/A,,Clear,220,2013-03-03 04:53:00
11:53 PM,41.0,28.0,60,30.12,10.0,SW,6.9,-,N/A,,Clear,220,2013-03-03 05:53:00